Weather History for Dalhart, TX

Change the Weather History Date:

Friday, September 28, 2012

  Actual Average Record
Temperature  
Mean Temperature 63 °F 62 °F  
Max Temperature 72 °F 77 °F 94 °F (1994)
Min Temperature 54 °F 47 °F 35 °F (1984)
Degree Days  
Heating Degree Days 2 4  
Month to date heating degree days 26 50  
Since 1 July heating degree days 26 53  
Cooling Degree Days 0 2  
Month to date cooling degree days 169 129  
Year to date cooling degree days 1641 1125  
Growing Degree Days 12 (Base 50)    
Moisture  
Dew Point 55 °F    
Average Humidity 78    
Maximum Humidity 100    
Minimum Humidity 55    
Precipitation  
Precipitation 0.03 in 0.04 in 1.37 in (1990)
Month to date precipitation 0.28 1.55  
Year to date precipitation 6.25 14.90  
Snow  
Snow 0.00 in 0.00 in 0.00 in ()
Month to date snowfall 0.0 0.0  
Since 1 July snowfall 0.0 0.0  
Since 1 September snowfall 0.0 0.0  
Snow Depth 0.00 in    
Sea Level Pressure  
Sea Level Pressure 30.11 in    
Wind  
Wind Speed 6 mph (ENE)    
Max Wind Speed 25 mph    
Max Gust Speed 30 mph    
Visibility 10 miles    
Events Rain    
T = Trace of Precipitation, MM = Missing Value Source: NWS Daily Summary

Daily Weather History Graph

Daily Weather History Graph

Search for Another Location

Airport:

Trip Planner

Search our weather history database for the weather conditions in past years. The results will help you decide how hot, cold, wet, or windy it might be!

Date:

Astronomy

Sep. 28, 2012 Rise Set
Actual Time 7:43 AM CDT 7:37 PM CDT
Civil Twilight 7:17 AM CDT 8:02 PM CDT
Nautical Twilight 6:47 AM CDT 8:32 PM CDT
Astronomical Twilight 6:17 AM CDT 9:02 PM CDT
Moon 6:40 PM CDT (9/28) 6:17 AM CDT (9/28)
Length of Visible Light 12h 45m
Length of Day
11h 54m
Waxing Gibbous, 98% of the Moon is Illuminated
Sep 28
Waxing Gibbous
Sep 29
Full
Oct 8
Last Quarter
Oct 15
New
Oct 21
First Quarter

Hourly Weather History & Observations

Time (CDT) Temp. Dew Point Humidity Pressure Visibility Wind Dir Wind Speed Gust Speed Precip Events Conditions
12:53 AM 62.1 °F 57.0 °F 84% 30.05 in 10.0 mi SE 9.2 mph - N/A   Overcast
1:33 AM 62.6 °F 57.2 °F 82% 30.18 in 10.0 mi ESE 6.9 mph - N/A   Overcast
1:48 AM 62.6 °F 57.2 °F 82% 30.19 in 10.0 mi ESE 5.8 mph - N/A   Overcast
1:53 AM 62.1 °F 57.9 °F 86% 30.05 in 10.0 mi ESE 5.8 mph - N/A   Overcast
2:53 AM 57.0 °F 52.0 °F 83% 30.10 in 10.0 mi NE 17.3 mph 20.7 mph 0.00 in Rain Light Rain
3:16 AM 55.4 °F 53.6 °F 94% 30.22 in 6.0 mi ENE 16.1 mph - 0.00 in Rain Light Rain
3:53 AM 55.9 °F 55.0 °F 97% 30.08 in 8.0 mi East 11.5 mph - 0.03 in Rain Light Rain
4:53 AM 55.9 °F 54.0 °F 93% 30.06 in 10.0 mi East 4.6 mph - 0.00 in   Overcast
5:53 AM 55.9 °F 54.0 °F 93% 30.05 in 10.0 mi SSE 4.6 mph - N/A   Partly Cloudy
6:53 AM 55.0 °F 54.0 °F 96% 30.06 in 10.0 mi South 3.5 mph - N/A   Mostly Cloudy
7:53 AM 57.0 °F 54.0 °F 89% 30.09 in 10.0 mi North 3.5 mph - N/A   Overcast
8:53 AM 57.0 °F 54.0 °F 89% 30.11 in 10.0 mi Calm Calm - N/A   Overcast
9:31 AM 57.2 °F 53.6 °F 88% 30.23 in 10.0 mi NE 6.9 mph - N/A   Overcast
9:53 AM 57.9 °F 55.0 °F 90% 30.13 in 10.0 mi NE 3.5 mph - N/A   Overcast
10:35 AM 60.8 °F 55.4 °F 82% 30.25 in 8.0 mi NE 3.5 mph - N/A   Overcast
10:53 AM 60.1 °F 55.0 °F 83% 30.14 in 9.0 mi NNE 3.5 mph - N/A   Overcast
11:16 AM 62.6 °F 55.4 °F 77% 30.25 in 10.0 mi NNE 4.6 mph - N/A   Mostly Cloudy
11:53 AM 63.0 °F 55.0 °F 75% 30.12 in 10.0 mi NE 4.6 mph - N/A   Overcast
12:53 PM 68.0 °F 52.0 °F 56% 30.09 in 10.0 mi ENE 4.6 mph - N/A   Overcast
1:53 PM 69.8 °F 53.6 °F 56% 30.20 in 10.0 mi NE 8.1 mph - N/A   Mostly Cloudy
2:53 PM 70.0 °F 53.1 °F 55% 30.05 in 10.0 mi ENE 4.6 mph - N/A   Mostly Cloudy
3:53 PM 70.0 °F 53.1 °F 55% 30.04 in 10.0 mi Variable 3.5 mph - N/A   Overcast
4:53 PM 70.0 °F 54.0 °F 57% 30.04 in 10.0 mi East 9.2 mph - N/A   Mostly Cloudy
5:53 PM 70.0 °F 54.0 °F 57% 30.03 in 10.0 mi East 10.4 mph - N/A   Mostly Cloudy
6:53 PM 68.0 °F 54.0 °F 61% 30.04 in 10.0 mi East 9.2 mph - N/A   Partly Cloudy
7:53 PM 66.0 °F 55.0 °F 68% 30.04 in 10.0 mi East 6.9 mph - N/A   Clear
8:53 PM 64.0 °F 55.9 °F 75% 30.06 in 10.0 mi ENE 4.6 mph - N/A   Clear
9:53 PM 63.0 °F 55.9 °F 78% 30.08 in 10.0 mi East 4.6 mph - N/A   Mostly Cloudy
10:53 PM 62.1 °F 55.9 °F 80% 30.08 in 10.0 mi ESE 8.1 mph - N/A   Clear
11:53 PM 61.0 °F 57.0 °F 87% 30.08 in 10.0 mi ESE 3.5 mph - N/A   Scattered Clouds